This demonstration page uses our WeatherBlox Daily Observations layout. Learn more.

39.92423, -83.80882

Hourly Observations for September 3, 2019

Temp ( °F °C ) Dew Point ( °F °C ) Humidity (%) Winds ( mph kmh ) Pressure ( in mb ) Visibility ( mi km ) Precip ( " mm )
12:56 am 00:56 Clear 60 15.6 60 15.6 100 100 SE 3 6 30.09 1019 10 16.09344 0 0
1:56 am 01:56 Clear 60 15.6 60 15.6 100 100 Calm 30.06 1018 7 11.265408 0 0
2:56 am 02:56 Clear with Mist and Fog 58 14.4 58 14.4 100 100 Calm 30.06 1018 4 6.437376 0 0
3:56 am 03:56 Clear 58 14.4 58 14.4 100 100 Calm 30.06 1018 10 16.09344 0 0
4:06 am 04:06 Clear with Mist and Fog 57 14 57 14 100 100 Calm 30.09 1019 1.75 2.816352 0 0
4:15 am 04:15 Clear with Mist and Fog 57 14 57 14 100 100 SE 3 6 30.06 1018 3 4.828032 0 0
4:56 am 04:56 Clear 57 13.9 57 13.9 100 100 SE 3 6 30.03 1017 9 14.484096 0 0
5:44 am 05:44 Clear with Mist and Fog 55 13 55 13 100 100 Calm 30.06 1018 2.5 4.02336 0 0
5:53 am 05:53 Clear with Mist and Fog 55 13 55 13 100 100 ESE 3 6 30.06 1018 4 6.437376 0 0
5:56 am 05:56 Clear with Mist and Fog 55 12.8 55 12.8 100 100 E 3 6 30.03 1017 4 6.437376 0 0
6:30 am 06:30 Clear with Mist and Fog 55 13 55 13 100 100 Calm 30.09 1019 1.75 2.816352 0 0
6:56 am 06:56 Clear with Mist and Fog 56 13.3 56 13.3 100 100 ENE 3 6 30.06 1018 1.5 2.414016 0 0
7:06 am 07:06 Sunny with Mist and Fog 55 13 55 13 100 100 E 5 7 30.09 1019 3 4.828032 0 0
7:56 am 07:56 Sunny with Mist and Fog 58 14.4 58 14.4 100 100 Calm 30.06 1018 5 8.04672 0 0
8:56 am 08:56 Sunny 67 19.4 66 18.9 97 97 SSE 8 13 30.06 1018 10 16.09344 0 0
9:56 am 09:56 Sunny 73 22.8 65 18.3 76 76 S 8 13 30.06 1018 10 16.09344 0 0
10:56 am 10:56 Sunny 76 24.4 66 18.9 72 72 S 9 15 30.06 1018 10 16.09344 0 0
11:56 am 11:56 Mostly Sunny 77 25 65 18.3 66 66 SW 9 15 30.06 1018 10 16.09344 0 0
12:56 pm 12:56 Partly Cloudy 80 26.7 65 18.3 60 60 SW 7 11 30.03 1017 10 16.09344 0 0
1:56 pm 13:56 Partly Cloudy 81 27.2 66 18.9 61 61 WSW 7 11 30.03 1017 10 16.09344 0 0
2:56 pm 14:56 Mostly Sunny 82 27.8 67 19.4 60 60 SSW 6 9 30 1016 10 16.09344 0 0
3:56 pm 15:56 Sunny 84 28.9 68 20 59 59 SSW 13 20 29.94 1014 10 16.09344 0 0
4:56 pm 16:56 Sunny 81 27.2 66 18.9 61 61 SSW 16 26 29.88 1012 10 16.09344 0 0
5:56 pm 17:56 Sunny 82 27.8 67 19.4 60 60 SSW 17 28 29.85 1011 10 16.09344 0 0
6:56 pm 18:56 Sunny 80 26.7 68 20 67 67 SW 12 19 29.88 1012 10 16.09344 0 0
7:56 pm 19:56 Sunny 77 25 67 19.4 71 71 S 7 11 29.88 1012 10 16.09344 0 0
8:56 pm 20:56 Clear 76 24.4 67 19.4 74 74 SW 9 15 29.88 1012 10 16.09344 0 0
9:56 pm 21:56 Partly Cloudy 74 23.3 67 19.4 79 79 W 8 13 29.91 1013 10 16.09344 0 0
10:56 pm 22:56 Clear 75 23.9 68 20 79 79 WSW 8 13 29.91 1013 10 16.09344 0 0
11:56 pm 23:56 Clear 74 23.3 68 20 82 82 SW 8 13 29.91 1013 10 16.09344 0 0

Powered by AerisWeather